This is the latest recevied weather packets stored in our database for station/object KC4JIR. If no packets are shown the sender has not sent any weather packets the latest 10 day(s).
| Time | Temp. | Humidity | Pressure | Rain* | Wind** | Luminosity | Snow |
|---|---|---|---|---|---|---|---|
| 1778173864 | 23.33° C | 95% | 1009.4 hPa | 0 mm | - | 88 W/m² | - |
| 1778173561 | 23.33° C | 94% | 1009.1 hPa | 0 mm | - | 56 W/m² | - |
| 1778173258 | 23.33° C | 95% | 1009.4 hPa | 0 mm | - | 74 W/m² | - |
| 1778172953 | 23.33° C | 95% | 1009.6 hPa | 0 mm | - | 55 W/m² | - |
| 1778172650 | 23.33° C | 95% | 1009.3 hPa | 0 mm | - | 95 W/m² | - |
| 1778172347 | 23.33° C | 95% | 1009.1 hPa | 0 mm | - | 47 W/m² | - |
| 1778172044 | 23.33° C | 95% | 1009.4 hPa | 0 mm | - | 55 W/m² | - |
| 1778171741 | 23.33° C | 95% | 1009 hPa | 0 mm | - | 71 W/m² | - |
| 1778171439 | 23.33° C | 95% | 1009 hPa | 0 mm | - | 68 W/m² | - |
| 1778171133 | 23.33° C | 96% | 1009 hPa | 0 mm | - | 83 W/m² | - |
| 1778170830 | 23.33° C | 96% | 1009.2 hPa | 0 mm | - | 88 W/m² | - |
| 1778170527 | 23.33° C | 96% | 1009 hPa | 0 mm | - | 84 W/m² | - |
| 1778170224 | 22.78° C | 96% | 1009.3 hPa | 0 mm | - | 101 W/m² | - |
| 1778169920 | 22.78° C | 97% | 1009.4 hPa | 0 mm | - | 99 W/m² | - |
| 1778169616 | 22.78° C | 98% | 1009.1 hPa | 0 mm | - | 55 W/m² | - |
| 1778169311 | 22.78° C | 97% | 1009 hPa | 0 mm | - | 63 W/m² | - |
| 1778169009 | 22.78° C | 98% | 1009.1 hPa | 0 mm | - | 176 W/m² | - |
| 1778168705 | 22.22° C | 98% | 1009.3 hPa | 0 mm | - | 136 W/m² | - |
| 1778168403 | 22.22° C | 99% | 1009.5 hPa | 0 mm | - | 165 W/m² | - |
| 1778168099 | 22.22° C | 99% | 1009.3 hPa | 0 mm | - | 85 W/m² | - |
| 1778167795 | 21.67° C | 99% | 1009.3 hPa | 0 mm | - | 91 W/m² | - |
| 1778167491 | 21.67° C | 99% | 1009.3 hPa | 0 mm | - | 29 W/m² | - |
| 1778167188 | 21.67° C | 99% | 1009.3 hPa | 0 mm | - | 45 W/m² | - |
| 1778166884 | 21.67° C | 99% | 1009.6 hPa | 0 mm | - | 49 W/m² | - |
| 1778166581 | 21.67° C | 99% | 1009.2 hPa | 0 mm | - | 61 W/m² | - |
* Rain latest hour (hover to see other rain measurements)
** Current wind speed in m/s (hover to see current wind gust speed)